User: anonymous   Login
Location: Berg
(47.2344°N, 9.5296°E)
Time: 07:27:35
(UTC+00:00)
Language:

ARGOS - Orbit

View from above orbital plane
View from above orbital plane
View from above satellite
View from above satellite

Ground track
Ground track

The orbit data is extracted from the following two-line orbital elements,

1 25634U 99008A   21102.84869472 -.00000008  00000-0  15947-4 0  9999
2 25634  98.4260 133.7394 0011172 126.1901 234.0311 14.19392561146447
Epoch (UTC): 12 April 2021 20:22:07
Eccentricity: 0.0011172
inclination: 98.4260°
perigee height: 819 km
apogee height: 835 km
right ascension of ascending node: 133.7394°
argument of perigee: 126.1901°
revolutions per day: 14.19392561
mean anomaly at epoch: 234.0311°
orbit number at epoch: 14644

The dashed part of the orbit path shows where the satellite is in the earth's shadow,  

DLR